RH
74 74 74 45 50 56 65 56 62 68 68 64 57 58 66 68 48 35 42 47 51 48 47 44 42 40 63 72 68 53 42 36 34 36 40 43 44 46 56 81 51 39 34
73 73 75 53 68 51 82 57 64 66 67 64 67 80 66 60 51 41 54 76 81 82 71 80 64 50 38 73 72 84 67 57 48 46 43 42 42 42 54 64 54 53 51
73 73 76 75 94 60 82 77 70 70 74 64 56 64 58 55 47 73 87 83 84 72 66 75 79 42 34 46 61 79 69 60 73 78 72 41 65 77 61 78 81 84 93
68 74 77 78 87 97 79 86 79 79 76 63 47 43 49 52 69 85 90 92 74 63 64 46 65 48 36 46 49 64 60 82 79 78 84 72 64 91 86 94 95 98 97
58 69 74 81 83 93 85 88 84 87 83 63 51 42 45 67 74 88 93 94 80 70 60 35 27 27 31 44 46 46 51 82 79 81 97 75 77 89 93 98 98 96 88
50 67 72 76 80 82 86 83 84 85 79 56 51 74 78 78 94 87 92 90 81 74 50 16 17 21 30 38 45 45 57 76 75 76 77 80 80 88 92 92 91 88 85
40 64 66 78 78 82 86 83 85 79 73 79 84 82 88 90 100 91 90 90 84 62 20 10 13 19 30 38 49 48 70 78 88 83 84 84 86 82 65 79 80 77 65
50 40 75 82 75 83 79 87 76 78 75 84 90 90 89 93 100 94 89 86 60 26 10 12 12 17 29 73 81 52 74 88 94 90 95 91 94 92 80 67 61 60 60
35 30 80 86 85 82 83 87 76 79 84 84 90 88 88 99 86 78 72 52 25 11 12 13 14 16 52 62 62 55 80 95 96 96 90 93 89 85 79 72 67 45 35
34 30 41 84 97 95 84 82 88 80 85 89 91 88 79 95 62 56 42 26 13 14 17 15 23 29 25 45 43 53 94 96 98 95 97 94 85 54 38 44 26 28 81
47 43 40 74 95 95 98 81 94 83 88 89 94 88 71 68 50 38 26 16 17 68 92 64 93 32 31 44 42 84 91 92 84 86 85 90 72 45 41 69 38 72 91
48 54 42 72 85 90 98 98 90 98 89 89 88 89 91 67 56 32 18 20 34 93 100 98 86 32 35 39 42 96 89 89 85 90 93 86 58 40 68 40 51 84 93
50 56 47 43 80 79 93 99 93 100 97 89 89 93 96 73 51 45 26 32 76 98 98 96 90 67 67 71 91 83 82 81 83 86 99 92 51 39 52 84 94 98 96
51 58 58 44 85 89 99 98 99 99 98 82 95 98 95 74 66 55 58 38 87 98 96 97 80 69 71 88 77 81 90 83 81 81 93 88 90 78 48 96 97 90 86
53 66 64 45 43 75 95 84 100 100 96 82 99 96 84 77 64 60 63 45 86 97 97 93 90 89 85 77 78 80 80 82 81 62 54 96 99 88 74 76 90 97 67
53 72 72 63 54 49 47 69 97 85 100 98 100 99 77 79 60 60 62 70 88 95 94 82 91 90 89 81 81 82 84 79 70 47 39 87 99 100 99 92 76 49 35
55 82 80 70 64 60 56 42 64 72 99 99 100 93 75 77 52 73 90 79 82 92 95 92 89 85 81 80 86 87 80 77 76 58 46 58 58 63 76 92 81 65 39
55 73 79 74 69 61 63 46 46 75 90 100 100 89 77 70 56 75 88 88 86 93 89 84 84 80 82 86 88 86 79 79 88 70 54 56 48 41 34 38 38 40 38
60 74 76 67 63 77 84 66 62 81 83 100 99 86 77 66 55 72 85 83 89 90 78 79 79 81 87 89 86 78 69 73 83 84 76 54 41 36 34 34 34 33 33
71 78 85 66 70 79 100 94 75 70 87 100 98 91 81 64 59 65 82 78 87 79 77 74 77 85 88 86 76 64 58 62 63 61 67 58 48 32 36 33 33 34 35
85 82 89 79 82 87 89 99 87 81 73 99 96 88 82 71 61 64 78 77 81 80 76 70 65 77 82 76 54 51 55 54 49 54 46 38 39 37 33 35 32 32 34
70 92 96 96 88 84 86 99 88 62 78 93 80 78 82 74 68 63 72 80 77 79 75 70 61 55 50 50 45 51 73 67 65 66 57 50 43 41 38 37 36 38 39
63 90 95 97 94 100 100 100 99 100 94 98 86 74 69 71 72 67 68 80 78 76 72 70 63 51 50 49 41 44 58 54 58 67 66 68 61 50 45 47 48 51 45
89 79 87 97 99 100 100 100 94 84 94 99 93 78 79 66 74 62 57 70 73 74 74 69 62 48 38 40 49 47 40 46 52 68 73 67 70 66 61 58 58 54 48
80 84 82 100 100 100 100 100 100 99 94 89 76 72 56 54 53 50 50 59 73 76 73 62 61 54 44 38 36 42 46 53 53 45 69 70 70 75 72 80 75 58 54
90 90 99 85 100 100 100 100 100 100 100 98 90 68 74 46 40 43 41 51 58 61 66 63 61 59 55 51 44 46 40 39 46 47 51 53 50 62 81 88 83 73 65
Wind_Speed
13 11 9 13 15 18 16 17 18 17 18 16 17 17 17 15 13 14 14 12 11 10 10 11 12 12 14 14 13 13 13 13 14 14 14 14 14 14 15 14 9 12 12
10 12 10 10 15 19 15 18 17 18 18 17 17 16 17 15 14 14 13 16 16 13 11 11 10 11 13 16 15 14 14 15 15 14 11 12 12 12 10 11 9 11 11
12 11 11 8 14 17 18 17 19 19 18 16 16 16 17 16 15 14 16 18 17 13 11 10 7 9 10 15 15 14 15 16 17 14 12 10 12 10 9 8 9 12 16
11 10 15 12 15 16 19 18 20 19 18 17 15 15 16 17 17 16 18 21 18 13 10 9 10 7 10 14 14 14 15 19 18 14 13 5 12 14 14 16 16 15 13
11 6 15 14 11 18 19 20 18 20 18 17 17 16 17 18 18 18 22 19 15 10 8 7 9 9 10 13 14 14 17 18 15 14 15 4 10 12 13 13 11 8 5
6 6 11 17 17 19 20 20 21 20 20 18 19 19 20 20 18 20 21 18 12 9 7 7 9 11 13 13 14 15 19 16 12 10 12 9 9 10 9 8 6 4 1
18 7 12 14 18 17 24 23 24 22 22 21 21 22 21 18 18 19 19 17 13 11 9 9 11 13 15 15 15 16 20 14 11 11 13 11 11 8 5 3 2 2 3
20 9 10 16 18 20 25 26 26 25 25 23 24 23 21 16 19 19 18 16 14 12 11 11 13 15 17 17 17 21 18 13 11 12 14 15 10 6 4 2 1 2 5
24 17 7 17 19 21 22 30 28 28 27 26 25 23 20 20 20 19 17 16 14 13 12 13 14 16 18 20 18 22 16 11 14 16 14 10 6 2 3 4 2 3 11
29 22 15 18 19 23 22 31 31 30 29 29 28 23 21 21 20 18 16 15 15 13 14 15 16 17 18 21 20 21 18 16 16 12 10 4 1 2 3 7 9 15 18
20 25 16 20 22 24 27 34 34 32 30 30 28 25 24 22 18 17 16 16 16 15 15 16 19 19 20 21 21 24 18 15 12 7 5 6 1 6 12 14 15 18 16
20 26 19 18 24 29 29 31 36 37 35 33 31 28 23 20 18 16 18 19 19 18 18 18 17 19 21 21 26 23 15 12 10 8 8 5 3 9 14 16 19 16 12
22 28 24 19 24 27 35 31 36 39 39 37 33 32 25 21 18 19 20 21 24 21 21 19 19 22 23 27 25 17 13 11 12 11 9 8 7 12 14 17 18 14 12
24 29 29 21 20 24 30 27 35 40 42 41 38 32 29 24 22 24 21 23 27 23 23 22 24 21 20 29 20 17 15 13 11 7 12 13 13 13 16 17 15 11 10
23 25 29 23 20 25 20 22 15 26 51 45 42 35 30 28 25 26 23 25 24 26 25 24 23 18 19 24 18 22 19 13 12 10 15 15 15 13 14 14 13 12 11
19 24 28 23 20 23 18 38 31 16 12 46 42 36 34 32 26 24 24 29 26 28 24 26 19 24 23 21 20 23 20 15 13 12 14 16 15 15 13 11 10 9 7
18 22 27 23 16 20 18 21 53 31 26 46 42 37 39 35 27 24 25 27 27 27 25 24 24 23 23 23 23 23 21 15 12 12 14 15 14 14 13 11 9 8 7
21 25 26 20 18 19 19 18 38 39 26 39 39 41 37 33 33 31 29 29 26 27 28 25 24 26 27 25 24 23 21 19 13 11 13 13 12 10 8 8 7 6 5
24 27 25 18 17 15 18 13 27 27 28 32 41 41 37 36 36 37 32 35 30 31 28 29 28 28 28 28 26 23 23 21 18 15 11 12 12 12 9 8 6 4 4
22 26 21 17 14 11 16 21 25 22 16 23 41 39 31 36 36 37 34 35 35 33 32 32 32 30 30 30 28 24 22 20 18 17 16 14 11 10 9 8 7 6 4
19 19 20 19 18 13 18 24 18 19 14 22 25 33 31 33 36 37 37 35 36 36 36 33 32 33 31 29 27 22 19 17 16 15 13 13 14 11 10 9 8 6 5
10 20 23 23 20 20 20 18 22 17 17 32 30 26 28 29 33 35 36 35 35 36 34 32 32 32 30 30 30 26 15 16 17 16 15 13 12 13 11 9 8 7 6
7 11 14 19 23 27 27 21 23 26 24 31 34 36 28 26 32 32 34 34 34 34 34 33 33 33 34 30 26 13 10 8 19 18 17 15 13 13 11 11 10 9 7
12 6 10 18 21 29 29 23 18 19 24 29 30 29 30 24 29 29 28 30 31 31 31 32 31 30 29 32 28 18 11 12 11 12 20 18 17 15 13 13 12 12 10
11 7 7 14 12 23 25 23 25 18 23 32 30 29 23 24 24 24 24 26 29 29 29 29 29 29 28 30 30 25 15 15 11 8 15 23 20 18 14 12 14 13 12
11 8 5 14 13 9 13 19 19 23 26 26 34 33 23 21 20 22 22 24 26 27 28 28 27 28 27 26 27 26 18 16 15 8 6 17 19 17 19 19 18 15 16
Wind_Direction
5 311 319 207 181 180 181 178 172 175 175 173 172 173 164 160 153 153 151 150 147 143 139 139 148 142 133 124 118 118 118 113 111 111 112 111 111 107 102 105 97 87 89
16 309 295 246 189 182 181 182 178 180 183 183 180 181 174 167 161 157 154 142 131 127 117 118 126 138 146 139 134 122 111 105 100 96 101 108 107 108 103 101 87 91 92
7 316 283 284 200 191 181 190 185 186 186 188 189 184 182 172 166 159 158 148 138 139 138 141 140 132 137 143 140 135 116 104 101 89 82 101 108 110 115 107 101 100 103
14 330 288 290 200 204 192 195 197 195 191 192 190 182 181 173 168 172 168 155 158 161 165 171 172 154 142 144 144 138 122 108 103 106 97 87 107 102 104 110 113 115 117
8 343 287 271 227 209 205 201 198 197 195 195 188 184 178 176 178 175 172 172 176 179 184 200 188 172 161 154 148 139 128 112 101 98 137 151 118 114 120 119 123 117 100
359 297 278 266 263 221 212 205 197 198 196 191 190 185 181 180 180 184 185 190 197 206 221 212 193 181 167 159 150 141 134 119 126 147 156 156 147 124 130 127 126 91 66
310 331 293 257 258 251 214 206 204 203 201 193 190 185 185 188 189 195 196 200 209 221 221 200 189 179 168 160 150 142 131 130 137 160 176 171 138 143 173 165 195 241 349
307 305 280 260 252 252 226 208 211 207 202 198 193 192 192 204 193 205 201 208 217 220 205 190 183 175 166 156 156 142 139 146 167 176 159 154 147 124 120 138 286 41 15
300 307 261 264 243 248 237 216 209 211 205 204 201 202 210 195 206 211 211 214 215 204 194 188 178 171 167 164 157 149 144 157 162 153 158 153 188 230 257 279 248 60 88
291 291 267 240 233 237 244 223 214 211 210 206 205 205 222 205 211 218 216 210 201 191 189 186 173 167 169 164 157 148 159 156 165 158 153 188 289 340 125 111 108 108 100
283 282 274 249 237 227 233 226 217 212 212 209 206 211 219 207 211 221 213 197 185 170 171 174 161 168 162 160 157 153 160 165 169 181 175 211 83 115 109 105 113 112 102
268 275 269 253 241 234 228 220 220 214 210 209 208 212 211 210 216 213 201 189 172 163 161 163 161 154 156 152 150 161 154 162 171 177 188 142 130 125 114 109 109 109 124
266 264 264 256 250 242 234 212 221 216 210 211 208 210 210 210 207 198 193 182 163 168 165 164 161 152 148 144 140 149 170 188 184 191 151 140 131 128 122 115 118 120 112
261 260 264 246 244 249 242 231 214 216 209 209 206 207 204 202 199 197 194 182 168 176 173 168 157 148 153 150 137 153 158 184 189 197 150 133 127 125 129 126 123 124 129
254 257 263 247 246 246 237 234 134 207 210 206 207 205 194 200 202 203 196 179 172 179 178 169 151 159 166 162 161 169 169 193 216 186 148 140 132 130 135 141 135 129 129
249 253 262 252 254 256 260 242 258 323 265 207 206 195 184 200 203 196 182 174 176 184 180 170 167 175 172 164 170 166 173 190 206 168 162 146 141 133 127 126 129 132 131
256 242 256 259 258 266 271 270 247 291 321 195 198 186 195 199 192 183 184 175 180 178 181 174 184 175 168 168 170 170 169 175 192 173 166 158 152 149 147 139 134 127 119
245 238 252 249 254 265 272 294 249 260 329 193 189 186 198 196 183 175 185 173 183 182 182 180 176 174 168 173 169 173 173 170 176 176 168 173 173 174 169 166 153 142 127
240 237 245 234 242 255 264 261 219 246 317 186 185 182 188 192 188 181 182 179 178 188 181 180 178 178 171 173 175 173 174 175 176 173 176 177 179 186 183 179 173 168 161
239 237 238 230 238 236 229 234 227 243 315 170 183 177 177 189 189 183 183 187 185 182 181 184 182 177 181 180 178 178 177 176 182 181 187 191 194 187 183 188 192 191 193
239 238 235 225 219 210 200 182 188 219 283 191 158 183 178 189 189 186 187 185 183 185 186 188 186 184 182 188 176 166 167 178 182 186 197 198 199 207 196 199 200 203 211
252 233 235 230 225 211 211 205 175 188 203 201 165 160 184 192 186 187 185 187 188 187 187 187 188 184 183 186 173 164 162 180 185 194 203 210 205 207 210 210 222 214 211
287 278 237 230 231 227 210 216 191 169 174 206 191 164 166 187 185 187 188 189 189 188 188 190 192 191 185 186 187 172 159 189 191 201 206 205 220 216 216 217 218 229 240
260 261 288 285 232 220 206 196 193 192 182 182 186 179 173 188 190 188 189 191 190 191 192 195 196 197 195 188 184 190 182 183 173 186 211 212 214 225 225 227 228 233 237
299 273 352 272 236 219 217 215 216 209 207 185 169 168 184 193 194 192 191 195 193 195 198 200 197 200 201 200 199 194 186 184 185 184 197 207 210 217 226 233 239 240 239
297 281 244 294 250 235 221 222 213 205 201 189 191 179 175 189 201 200 197 201 202 204 203 203 203 204 205 206 212 209 202 199 199 179 181 202 214 217 215 223 237 239 244